CAPE
0 1 0 nan nan nan nan 0 nan nan nan nan nan nan nan nan nan nan nan nan nan nan nan nan nan nan nan nan nan nan nan nan nan nan nan nan nan nan 0 nan nan nan 0 0 0 nan 0 3 3 6 4 2 1 1 0 nan nan nan 11 39 39 46 43 31 31 20 17 21 24 24 22 13 8 8 5 7 6 6 6 4 4 4 4 5 5 7
1 1 0 0 0 nan nan 1 nan nan nan nan nan nan nan nan nan nan nan nan nan nan nan nan nan nan nan nan nan nan nan nan nan nan nan nan 0 0 nan nan nan nan 0 0 0 0 0 4 4 4 1 0 0 0 0 0 0 2 8 12 12 33 32 29 29 21 13 12 10 10 9 7 6 6 7 10 12 12 14 12 12 13 16 20 20 22
1 0 0 1 1 nan nan 0 nan nan nan nan nan nan nan nan nan nan nan nan nan nan nan nan nan nan nan 0 0 0 nan nan nan nan nan nan nan nan nan nan nan nan nan 0 0 2 1 2 2 0 nan nan nan nan nan 1 1 3 5 5 5 12 18 18 18 12 10 6 1 1 0 0 1 1 8 19 23 23 23 25 25 25 29 31 31 34
0 0 0 0 0 0 nan nan nan nan nan nan nan nan 0 nan nan nan nan nan nan nan nan nan nan nan 0 nan 0 0 0 nan nan nan nan nan nan nan nan nan nan nan nan 0 0 1 3 0 0 nan nan 0 0 0 1 0 0 0 1 3 3 3 3 3 3 3 3 2 nan nan nan nan 0 0 14 22 24 24 25 26 26 30 38 42 42 41
0 nan nan nan nan nan nan nan nan nan nan nan 0 0 0 0 nan nan nan nan nan nan nan nan nan nan nan 0 1 1 1 0 0 0 nan nan nan nan nan 0 0 nan nan 0 0 0 2 nan nan nan 0 1 1 1 1 1 1 0 1 nan nan nan nan 0 0 1 1 1 nan nan nan nan 1 1 8 19 23 23 24 25 25 29 40 52 52 61
0 nan nan nan nan nan nan nan nan nan nan 0 0 0 0 0 0 0 nan nan nan nan nan nan nan nan nan 0 0 0 1 1 0 0 0 nan nan nan nan nan nan nan nan 0 0 0 nan nan nan nan 0 1 1 1 2 1 1 0 0 nan nan 0 1 1 1 2 4 4 0 0 nan nan 0 0 3 7 15 15 20 20 20 23 27 37 37 51
nan 0 0 nan nan nan 0 nan 0 0 nan nan 0 0 nan 0 nan nan 0 0 0 nan nan nan nan nan nan nan 0 0 0 0 0 0 0 0 nan nan nan nan nan nan nan 1 1 nan nan nan nan nan 1 2 3 3 3 2 2 0 0 1 1 1 1 1 1 2 3 4 0 0 nan nan nan nan 0 3 6 6 10 9 9 11 10 12 12 30
nan nan nan nan nan 0 1 1 1 1 0 nan nan nan 0 1 1 1 1 1 1 nan 0 1 1 0 nan nan nan nan nan 1 1 1 1 1 0 0 0 0 0 0 0 2 2 nan 0 0 0 1 2 3 4 4 4 1 1 0 1 0 0 0 1 1 1 1 1 1 nan nan nan nan nan nan nan nan nan nan 2 6 6 6 5 3 3 3
nan nan nan 0 0 0 1 1 2 2 1 0 nan nan nan 0 1 1 1 1 1 1 1 1 1 0 nan nan nan nan 0 2 2 2 1 2 2 2 1 1 1 1 1 2 2 nan 1 1 1 2 3 4 3 3 1 nan nan nan nan nan nan 0 1 0 0 0 nan nan nan nan nan nan nan nan nan nan nan nan nan nan nan 1 2 1 1 0
nan nan 0 1 1 3 1 1 2 2 1 1 1 1 nan nan 0 0 0 1 1 2 1 0 0 0 1 0 0 0 1 1 2 2 2 nan 1 1 1 0 0 2 0 1 1 0 1 2 2 2 3 4 1 1 nan nan nan nan nan nan nan 0 nan nan nan nan nan nan nan nan nan nan nan nan nan nan nan nan nan nan nan nan nan nan nan nan
nan 0 0 nan nan 0 1 1 1 1 1 0 0 0 1 0 nan nan nan 0 0 1 1 1 1 0 0 0 1 1 1 1 1 1 2 0 1 1 0 0 0 0 0 2 2 nan nan 1 1 2 3 2 nan nan nan nan nan nan nan nan nan nan nan nan nan nan nan nan nan nan nan nan nan nan nan nan nan nan nan nan nan nan nan nan nan nan
nan nan nan nan nan nan nan nan 0 0 0 0 0 0 0 1 0 0 nan nan nan 0 0 0 0 0 0 0 0 0 0 0 1 1 1 1 1 1 1 1 1 0 1 2 2 nan nan nan nan 0 1 0 nan nan nan nan nan nan nan nan nan nan nan nan nan nan nan nan nan nan nan nan nan nan nan nan nan nan nan nan nan nan nan nan nan nan
nan nan nan nan nan nan nan nan nan nan nan nan nan nan nan 0 nan nan nan nan nan nan 0 0 0 0 1 0 0 0 0 0 1 1 1 1 1 1 1 1 1 2 3 2 2 3 nan nan nan nan nan nan nan nan nan nan nan nan nan nan nan nan nan nan nan nan nan nan nan nan nan nan nan nan nan nan nan nan nan nan nan nan nan nan nan nan
nan nan nan nan nan nan 0 nan nan nan nan nan nan nan nan nan nan nan nan nan nan nan nan nan nan 0 1 1 0 0 0 0 0 0 1 1 1 1 0 1 1 2 5 4 4 5 3 nan nan nan nan nan nan nan nan nan nan nan nan nan nan nan nan nan nan nan nan nan nan nan nan nan nan nan nan nan nan nan nan nan nan nan nan nan nan nan
nan nan nan nan nan nan 0 nan nan nan nan nan nan nan nan nan nan nan nan nan nan nan nan nan nan 0 0 1 0 0 0 nan nan nan 0 1 1 1 0 1 1 3 5 10 10 13 3 0 0 0 nan 1 0 0 nan 0 0 nan nan nan nan nan nan nan nan nan nan nan nan nan nan nan nan nan nan nan nan nan nan nan nan nan nan nan nan nan
nan nan nan nan nan 0 0 nan nan nan nan nan nan nan nan nan nan nan nan nan nan nan nan nan nan 0 0 1 0 0 0 nan nan nan 0 1 1 1 1 0 0 nan nan nan nan nan nan nan nan 0 nan nan nan nan nan 1 1 nan nan nan nan nan nan nan nan nan nan nan nan nan nan nan nan nan nan nan nan nan nan nan nan nan nan nan nan nan
nan nan nan nan nan 0 nan nan nan nan nan nan nan nan nan nan nan nan nan nan nan nan nan nan nan nan nan 0 1 1 0 nan nan nan 0 0 1 1 1 0 0 nan nan nan nan nan nan nan nan nan nan nan nan nan nan nan nan 0 nan nan nan nan nan nan nan nan nan nan nan nan nan nan nan nan nan nan nan nan nan nan nan nan nan nan nan nan
nan nan nan nan nan nan nan nan nan nan nan nan nan nan nan nan nan nan nan nan nan nan nan nan nan nan nan nan 1 1 1 nan 0 0 0 0 1 1 1 0 0 0 0 0 0 0 0 nan nan nan nan nan nan nan nan 0 0 1 0 nan nan nan nan nan nan nan nan nan nan nan nan nan nan nan nan nan nan nan nan nan nan nan nan nan nan nan
nan nan nan nan nan nan nan nan nan nan nan nan nan nan nan nan nan nan nan nan nan nan nan nan nan nan nan nan 0 0 nan nan 1 1 0 0 1 1 0 0 0 0 0 0 0 0 0 nan nan nan 0 nan nan nan 0 1 1 1 1 0 0 nan nan nan nan nan nan nan nan nan nan nan nan nan nan nan nan nan nan nan nan nan nan nan nan nan
nan nan nan nan nan nan nan nan nan nan nan nan nan nan nan nan nan nan nan nan nan nan nan nan nan nan nan nan 0 0 nan 0 0 0 nan 0 0 0 0 0 0 0 0 0 0 0 0 nan nan nan nan nan 0 0 1 2 2 2 2 0 0 nan nan nan nan nan nan nan nan nan nan nan nan nan nan nan nan nan nan nan nan nan nan nan nan nan
nan nan nan nan nan nan nan nan nan nan nan nan nan nan nan nan nan nan nan nan nan nan nan nan nan nan nan nan 0 0 0 nan nan nan nan 0 1 1 0 1 1 1 0 0 0 0 0 nan nan nan 0 0 0 0 1 3 3 3 3 1 1 0 0 0 0 0 nan nan nan nan nan nan nan nan nan nan nan nan nan nan nan nan nan nan nan nan
nan nan nan nan nan nan nan nan nan nan nan nan nan nan nan nan nan nan nan nan nan nan nan nan nan nan nan nan 0 0 0 nan nan nan 0 0 1 1 0 0 0 1 0 0 0 0 0 nan nan nan nan 4 1 1 2 3 3 3 3 1 1 0 nan 0 0 0 nan nan nan nan nan nan nan nan nan nan nan nan nan nan nan nan nan nan nan nan
nan nan nan nan nan nan nan nan nan nan nan nan nan nan nan nan nan nan nan nan nan nan nan nan nan nan nan 0 0 0 1 0 nan nan 1 0 1 1 0 0 0 0 0 0 0 0 1 0 0 nan 0 nan nan nan 4 2 2 2 1 0 0 0 0 0 0 1 nan nan nan nan nan nan nan nan nan nan nan nan nan nan nan nan nan nan nan nan
nan nan nan nan nan nan nan nan nan nan nan nan nan nan nan nan nan nan nan nan nan nan nan nan nan nan 0 1 1 1 1 0 0 0 1 1 1 1 0 nan nan 0 0 1 1 1 1 0 0 0 0 nan nan nan 0 4 4 5 3 3 3 2 4 6 6 5 3 3 1 1 1 nan nan nan nan nan nan nan nan nan nan nan nan nan nan nan
nan nan nan nan nan nan nan nan nan nan nan nan nan nan nan nan nan nan nan nan nan nan nan nan nan nan 0 1 1 1 1 nan nan nan 0 nan 0 0 0 nan nan 0 1 1 1 1 1 1 1 1 0 0 nan nan nan nan nan 1 2 2 2 3 4 4 4 4 4 2 3 3 2 6 4 4 2 1 0 0 0 0 0 nan nan nan nan nan
nan nan nan nan nan nan nan nan nan nan nan nan nan nan nan nan nan nan nan nan nan nan nan nan nan nan 0 0 0 0 0 nan nan nan 0 nan 0 0 nan nan nan 0 1 1 1 1 1 1 1 1 1 1 2 2 0 nan nan 0 1 0 0 0 0 0 0 0 nan 0 nan nan 0 0 1 1 2 3 2 2 5 4 4 4 2 1 1 0
nan nan nan nan nan nan nan nan nan nan nan nan nan nan nan nan nan nan nan nan nan nan nan nan nan nan 0 nan 0 0 0 nan nan nan nan nan 0 0 0 nan nan nan 0 1 1 1 1 1 1 1 1 0 0 0 1 nan nan 0 1 0 0 1 0 0 0 nan 0 nan 0 0 nan nan nan nan nan nan nan nan nan nan nan 1 5 6 6 3
nan nan nan nan nan nan nan nan nan nan 0 0 0 0 nan nan nan nan nan nan nan nan nan nan nan nan 0 nan nan nan 0 nan nan nan nan nan 0 0 0 nan nan nan 0 1 1 2 1 0 0 0 0 nan nan nan 0 nan nan nan nan 0 0 0 0 0 0 nan nan nan nan nan nan nan nan nan nan nan nan nan nan nan nan 0 1 6 6 10
nan nan nan nan nan nan nan nan 0 0 1 2 1 1 nan nan nan nan nan nan nan nan nan nan nan nan nan nan nan nan nan 0 nan nan nan nan nan nan nan nan nan nan nan 0 0 0 nan nan nan nan nan nan nan nan nan nan nan 1 0 nan nan nan nan nan nan nan nan nan nan nan nan nan nan nan nan nan nan nan nan nan nan nan 1 7 7 26
nan nan nan nan nan nan nan 0 2 2 2 2 0 0 nan nan nan nan nan nan nan nan nan nan nan nan nan nan 0 0 0 nan nan nan nan nan nan nan nan nan nan nan nan 0 0 0 0 nan nan nan nan nan nan nan nan nan nan nan nan nan nan nan nan nan nan nan nan nan nan nan nan nan nan nan nan nan nan nan nan nan nan nan 1 4 4 2
nan nan nan nan nan nan nan nan 1 1 3 3 1 1 nan nan nan nan nan nan nan nan nan nan nan nan nan nan 0 0 0 nan nan nan nan nan nan nan nan nan nan nan nan nan nan 0 0 nan nan nan nan nan nan nan nan nan nan nan nan nan nan nan nan nan nan nan nan nan nan nan nan nan nan nan nan nan nan nan nan nan nan nan 0 2 2 1
nan nan nan nan nan nan nan nan nan nan nan nan nan nan nan nan nan nan nan nan nan nan nan nan nan nan nan nan nan nan nan nan nan nan nan nan nan nan nan nan nan nan nan nan nan nan nan nan nan nan nan nan nan nan nan nan nan nan nan nan nan nan nan nan nan nan nan nan nan nan nan nan nan nan nan nan nan nan nan nan nan nan nan nan nan 0
nan nan nan nan nan nan nan nan nan nan nan nan nan nan nan nan nan nan nan nan nan nan nan nan nan nan nan nan nan nan nan nan nan nan nan nan nan nan nan nan nan nan nan nan nan nan nan nan nan nan nan nan nan nan nan nan nan nan nan nan nan nan nan nan nan nan nan nan nan nan nan nan nan nan nan nan nan nan nan nan nan nan nan nan nan nan
nan nan nan nan nan nan nan nan nan nan nan nan nan nan nan nan nan nan nan nan nan nan nan nan nan nan nan nan nan nan nan nan 0 0 nan nan nan nan nan nan nan nan nan nan nan nan nan nan nan nan nan nan nan nan nan nan nan nan nan nan nan nan nan nan nan nan nan nan nan nan nan nan nan nan nan nan nan nan nan nan nan nan nan nan nan nan
nan nan nan nan nan nan nan nan nan nan nan nan 0 0 nan nan nan nan nan nan nan nan nan nan nan nan nan nan nan nan nan nan 0 0 nan nan nan nan nan nan nan nan nan nan nan nan nan nan nan nan nan nan nan nan nan nan nan nan nan nan nan nan nan nan nan nan nan nan nan nan nan nan nan nan nan nan nan nan nan nan nan nan nan nan nan nan
nan nan nan nan nan nan nan nan nan nan nan 0 0 0 0 nan nan nan nan nan nan nan nan nan nan nan nan nan nan nan nan nan nan nan nan nan nan nan nan nan nan nan nan nan nan nan nan nan nan nan nan nan nan nan nan nan nan nan nan nan nan nan nan nan nan nan nan nan nan nan nan nan nan nan nan nan nan nan nan nan nan nan nan nan nan nan
nan nan nan nan nan nan nan nan nan nan nan nan 0 0 0 nan nan nan nan nan nan nan nan nan nan nan nan nan nan nan nan nan nan nan nan nan nan nan nan nan nan nan nan nan nan nan nan nan nan nan nan nan nan nan nan nan nan nan nan nan nan nan nan nan nan nan nan nan nan nan nan nan nan nan nan nan nan nan nan nan nan nan nan nan nan nan
nan nan nan nan nan nan nan nan nan nan 0 0 0 0 nan nan nan nan nan nan nan nan nan nan nan nan nan nan nan nan nan nan nan nan nan nan nan nan nan nan nan nan nan nan nan nan nan nan nan nan nan nan nan nan nan nan nan nan nan nan nan nan nan nan nan nan nan nan nan nan nan nan nan nan nan nan nan nan nan nan nan nan nan nan nan nan
nan nan nan nan nan nan nan nan 0 0 1 1 0 0 nan nan nan nan nan nan nan nan nan nan nan nan nan 0 0 0 nan nan nan nan nan nan nan nan nan nan nan nan nan nan nan nan nan nan nan nan nan nan nan nan nan nan nan nan nan nan nan nan nan nan nan nan nan nan nan nan nan nan nan nan nan nan nan nan nan nan nan nan nan nan nan nan
nan nan nan 0 0 nan nan 0 1 1 0 nan nan nan nan nan nan nan nan nan nan nan nan nan nan nan nan nan nan nan 0 0 nan nan nan nan nan nan nan nan nan nan nan nan nan nan nan nan nan nan nan nan nan nan nan nan nan nan nan nan nan nan nan nan nan nan nan nan nan nan nan nan nan nan nan nan nan nan nan nan nan nan nan nan nan nan
nan nan 0 0 0 1 1 1 1 1 1 nan nan nan nan nan nan nan nan nan nan nan nan nan nan nan nan nan nan nan nan 0 nan nan nan nan nan nan nan nan nan nan nan nan nan nan nan nan nan nan nan nan nan nan nan nan nan nan nan nan nan nan nan nan nan nan nan nan nan nan nan nan nan nan nan nan nan nan nan nan nan nan nan nan nan nan
nan nan 0 0 0 nan nan 0 1 1 nan nan nan nan nan nan nan nan nan nan nan nan nan nan nan nan nan nan nan nan nan nan 0 0 nan nan nan nan nan nan nan nan nan nan nan nan nan nan nan nan nan nan nan nan nan nan nan nan nan nan nan nan nan nan nan nan nan nan nan nan nan nan nan nan nan nan nan nan nan nan nan nan nan nan nan nan
nan 0 nan 0 0 nan nan 0 0 0 nan nan nan nan nan nan nan nan nan nan nan nan nan nan nan nan nan nan nan nan nan nan nan nan nan nan nan nan nan nan nan nan nan nan nan nan nan nan nan nan nan nan nan nan nan nan nan nan nan nan nan nan nan nan nan nan nan nan nan nan nan nan nan nan nan nan nan nan nan nan nan nan nan nan nan nan
0 nan nan nan nan nan nan nan nan nan nan nan nan nan nan nan nan nan nan nan nan nan nan nan nan nan nan nan nan nan nan nan nan nan nan nan nan nan nan nan nan nan nan nan nan nan nan nan nan nan nan nan nan nan nan nan nan nan nan nan nan nan nan nan nan nan nan nan nan nan nan nan nan nan nan nan nan nan nan nan nan nan nan nan nan nan
0 nan nan 0 0 nan nan nan nan nan nan nan nan nan nan nan nan nan nan nan nan nan nan nan nan nan nan nan nan nan nan nan nan nan nan 0 0 0 nan nan nan nan nan nan nan nan nan nan nan nan nan nan nan nan nan nan nan nan nan nan nan nan nan nan nan nan nan nan nan nan nan nan nan nan nan nan nan nan nan nan nan nan nan nan nan nan
nan nan nan nan nan nan 0 nan nan nan nan nan nan nan nan nan nan nan nan nan nan nan nan nan nan nan nan nan nan nan nan nan nan nan nan nan nan nan nan nan nan nan nan nan nan nan nan nan nan nan nan nan nan nan nan nan nan nan nan nan nan nan nan nan nan nan nan nan nan nan nan nan nan nan nan nan nan nan nan nan nan nan nan nan nan nan
nan nan nan nan nan nan nan nan nan nan nan nan nan nan nan nan nan nan nan nan nan nan nan nan nan nan nan nan nan nan nan nan nan nan nan nan nan nan nan nan nan nan nan nan nan nan nan nan nan nan nan nan nan nan nan nan nan nan nan nan nan nan nan nan nan nan nan nan nan nan nan nan nan nan nan nan nan nan nan nan nan nan nan nan nan nan
nan nan nan nan nan 0 nan nan nan nan nan nan nan nan nan nan nan nan nan nan nan nan nan nan nan nan nan nan nan nan nan nan nan nan nan nan nan nan nan nan nan nan nan nan nan nan nan nan nan nan nan nan nan nan nan nan nan nan nan nan nan nan nan nan nan nan nan nan nan nan nan nan nan nan nan nan nan nan nan nan nan nan nan nan nan nan
nan 0 0 1 1 1 1 nan nan nan nan 0 0 0 0 nan nan nan nan nan nan nan nan nan nan nan nan nan nan nan nan nan nan nan nan nan nan nan nan nan nan nan nan nan nan nan nan nan nan nan nan nan nan nan nan nan nan nan nan nan nan nan nan nan nan nan nan nan nan nan nan nan nan nan nan nan nan nan nan nan nan nan nan nan nan nan
0 0 1 1 1 0 0 0 0 0 0 0 0 0 0 0 nan nan nan nan nan nan nan nan nan nan nan nan nan nan nan nan nan nan nan nan nan nan nan nan nan nan nan nan nan nan nan nan nan nan nan nan nan nan nan nan nan nan nan nan nan nan nan nan nan nan nan nan nan nan nan nan nan nan nan nan nan nan nan nan nan nan nan nan nan nan
1 1 0 0 0 1 nan 0 nan nan nan nan 0 0 0 0 nan nan nan nan nan nan nan nan nan nan nan nan nan nan nan nan nan nan nan nan nan nan nan nan nan nan nan nan nan nan nan nan nan nan nan nan nan nan nan nan nan nan nan nan nan nan nan nan nan nan nan nan nan nan nan nan nan nan nan nan nan nan nan nan nan nan nan nan nan nan
CIN
-0 -0 -0 nan nan nan nan -0 nan nan nan nan nan nan nan nan nan nan nan nan nan nan nan nan nan nan nan nan nan nan nan nan nan nan nan nan nan nan -0 nan nan nan -0 -0 -0 nan -0 -1 -1 -2 -1 -1 -1 -1 -1 nan nan nan -1 -0 -0 -0 -0 -0 -0 -0 -0 -0 -0 -0 -0 -0 -0 -0 -0 -0 -0 -0 -0 -0 -0 -0 -1 -1 -1 -0
-0 -0 -0 -0 -0 nan nan -0 nan nan nan nan nan nan nan nan nan nan nan nan nan nan nan nan nan nan nan nan nan nan nan nan nan nan nan nan -0 -0 nan nan nan nan -0 -0 -0 -0 -0 -3 -3 -3 -4 -4 -2 -2 -2 -1 -1 -1 -0 -0 -0 -0 -0 -0 -0 -0 -0 -0 -0 -0 -0 -0 -0 -0 -1 -1 -0 -0 -1 -0 -0 -0 -0 -0 -0 -0
-0 -0 -0 -0 -0 nan nan -0 nan nan nan nan nan nan nan nan nan nan nan nan nan nan nan nan nan nan nan -0 -0 -0 nan nan nan nan nan nan nan nan nan nan nan nan nan -0 -0 -0 -1 -5 -5 -6 nan nan nan nan nan -0 -0 -0 -0 -0 -0 -0 -0 -0 -0 -0 -0 -0 -0 -0 -0 -0 -1 -1 -0 -0 -0 -0 -0 -0 -0 -0 -0 -0 -0 -0
-0 -0 -0 -0 -0 -0 nan nan nan nan nan nan nan nan -0 nan nan nan nan nan nan nan nan nan nan nan -0 nan -0 -0 -0 nan nan nan nan nan nan nan nan nan nan nan nan -0 -0 -1 -2 -5 -5 nan nan -1 -0 -0 -0 -0 -0 -0 -0 -0 -0 -0 -0 -0 -0 -0 -0 -0 nan nan nan nan -0 -0 -0 -0 -0 -0 -0 -0 -0 -0 -2 -0 -0 -0
-0 nan nan nan nan nan nan nan nan nan nan nan -0 -0 -0 -0 nan nan nan nan nan nan nan nan nan nan nan -0 -0 -0 -0 -0 -0 -0 nan nan nan nan nan -0 -0 nan nan -0 -0 -1 -4 nan nan nan -1 -0 -0 -0 -0 -0 -0 -1 -1 nan nan nan nan -0 -0 -0 -0 -1 nan nan nan nan -0 -0 -0 -0 -0 -0 -0 -0 -0 -0 -0 -0 -0 -0
-0 nan nan nan nan nan nan nan nan nan nan -0 -0 -0 -0 -0 -0 -0 nan nan nan nan nan nan nan nan nan -0 -0 -0 -0 -0 -0 -0 -0 nan nan nan nan nan nan nan nan -0 -0 -0 nan nan nan nan -0 -0 -0 -0 -0 -0 -0 -2 -2 nan nan -0 -0 -0 -0 -0 -1 -2 -3 -3 nan nan -0 -0 -0 -0 -0 -0 -0 -0 -0 -0 -0 -0 -0 -0
nan -1 -1 nan nan nan -0 nan -0 -0 nan nan -0 -0 nan -0 nan nan -0 -0 -0 nan nan nan nan nan nan nan -0 -0 -0 -0 -0 -0 -0 -0 nan nan nan nan nan nan nan -0 -0 nan nan nan nan nan -0 -0 -0 -0 -0 -0 -0 -1 -0 -0 -0 -0 -0 -0 -0 -1 -3 -2 -4 -4 nan nan nan nan -0 -0 -0 -0 -0 -0 -0 -0 -0 -0 -0 -0
nan nan nan nan nan -0 -0 -0 -0 -0 -0 nan nan nan -0 -0 -0 -0 -0 -0 -0 nan -0 -0 -0 -0 nan nan nan nan nan -0 -0 -0 -0 -0 -0 -0 -0 -0 -0 -0 -0 -0 -0 nan -0 -0 -0 -0 -0 -0 -0 -0 -0 -0 -0 -0 -0 -0 -0 -1 -1 -1 -1 -3 -4 -6 nan nan nan nan nan nan nan nan nan nan -0 -0 -0 -0 -0 -0 -0 -0
nan nan nan -0 -0 -0 -0 -0 -0 -0 -0 -0 nan nan nan -0 -0 -0 -0 -0 -0 -0 -0 -0 -0 -0 nan nan nan nan -0 -0 -0 -0 -0 -0 -0 -0 -0 -0 -0 -0 -0 -0 -0 nan -0 -0 -0 -0 -0 -0 -0 -0 -1 nan nan nan nan nan nan -2 -1 -1 -1 -3 nan nan nan nan nan nan nan nan nan nan nan nan nan nan nan -0 -0 -0 -0 -0
nan nan -1 -0 -0 -0 -0 -0 -0 -0 -0 -0 -0 -0 nan nan -0 -0 -0 -0 -0 -0 -0 -0 -0 -0 -0 -0 -0 -0 -0 -0 -0 -0 -0 nan -0 -0 -0 -0 -0 -0 -0 -0 -0 -10 -0 -0 -0 -0 -0 -0 -1 -1 nan nan nan nan nan nan nan -1 nan nan nan nan nan nan nan nan nan nan nan nan nan nan nan nan nan nan nan nan nan nan nan nan
nan -0 -1 nan nan -1 -0 -0 -0 -0 -0 -0 -0 -0 -0 -0 nan nan nan -0 -0 -0 -0 -0 -0 -0 -0 -0 -0 -0 -0 -0 -0 -0 -0 -0 -0 -0 -0 -0 -0 -0 -0 -0 -0 nan nan -1 -1 -1 -1 -1 nan nan nan nan nan nan nan nan nan nan nan nan nan nan nan nan nan nan nan nan nan nan nan nan nan nan nan nan nan nan nan nan nan nan
nan nan nan nan nan nan nan nan -0 -0 -0 -0 -0 -0 -0 -0 -1 -1 nan nan nan -0 -0 -0 -0 -0 -0 -0 -0 -0 -0 -0 -0 -0 -0 -0 -0 -0 -0 -0 -0 -0 -0 -0 -0 nan nan nan nan -2 -2 -2 nan nan nan nan nan nan nan nan nan nan nan nan nan nan nan nan nan nan nan nan nan nan nan nan nan nan nan nan nan nan nan nan nan nan
nan nan nan nan nan nan nan nan nan nan nan nan nan nan nan -0 nan nan nan nan nan nan -0 -0 -0 -0 -0 -0 -0 -0 -0 -0 -0 -0 -0 -0 -0 -0 -0 -0 -0 -0 -0 -0 -0 -0 nan nan nan nan nan nan nan nan nan nan nan nan nan nan nan nan nan nan nan nan nan nan nan nan nan nan nan nan nan nan nan nan nan nan nan nan nan nan nan nan
nan nan nan nan nan nan -0 nan nan nan nan nan nan nan nan nan nan nan nan nan nan nan nan nan nan -0 -0 -0 -0 -0 -0 -0 -0 -0 -0 -0 -0 -0 -0 -0 -0 -0 -0 -0 -0 -0 -0 nan nan nan nan nan nan nan nan nan nan nan nan nan nan nan nan nan nan nan nan nan nan nan nan nan nan nan nan nan nan nan nan nan nan nan nan nan nan nan
nan nan nan nan nan nan -0 nan nan nan nan nan nan nan nan nan nan nan nan nan nan nan nan nan nan -0 -0 -0 -0 -0 -0 nan nan nan -0 -0 -0 -0 -0 -0 -0 -0 -0 -0 -0 -0 -0 -1 -1 -1 nan -0 -0 -0 nan -0 -0 nan nan nan nan nan nan nan nan nan nan nan nan nan nan nan nan nan nan nan nan nan nan nan nan nan nan nan nan nan
nan nan nan nan nan -0 -1 nan nan nan nan nan nan nan nan nan nan nan nan nan nan nan nan nan nan -0 -0 -0 -0 -0 -0 nan nan nan -0 -0 -0 -0 -0 -0 -0 nan nan nan nan nan nan nan nan -1 nan nan nan nan nan -0 -0 nan nan nan nan nan nan nan nan nan nan nan nan nan nan nan nan nan nan nan nan nan nan nan nan nan nan nan nan nan
nan nan nan nan nan -0 nan nan nan nan nan nan nan nan nan nan nan nan nan nan nan nan nan nan nan nan nan -0 -0 -0 -0 nan nan nan -0 -0 -0 -0 -0 -0 -0 nan nan nan nan nan nan nan nan nan nan nan nan nan nan nan nan -1 nan nan nan nan nan nan nan nan nan nan nan nan nan nan nan nan nan nan nan nan nan nan nan nan nan nan nan nan
nan nan nan nan nan nan nan nan nan nan nan nan nan nan nan nan nan nan nan nan nan nan nan nan nan nan nan nan -0 -0 -0 nan -0 -0 -0 -0 -0 -0 -0 -0 -0 -0 -0 -0 -0 -0 -0 nan nan nan nan nan nan nan nan -1 -1 -0 -0 nan nan nan nan nan nan nan nan nan nan nan nan nan nan nan nan nan nan nan nan nan nan nan nan nan nan nan
nan nan nan nan nan nan nan nan nan nan nan nan nan nan nan nan nan nan nan nan nan nan nan nan nan nan nan nan -0 -0 nan nan -0 -0 -0 -0 -0 -0 -0 -0 -0 -0 -0 -0 -0 -0 -0 nan nan nan -1 nan nan nan -1 -0 -0 -0 -0 -0 -0 nan nan nan nan nan nan nan nan nan nan nan nan nan nan nan nan nan nan nan nan nan nan nan nan nan
nan nan nan nan nan nan nan nan nan nan nan nan nan nan nan nan nan nan nan nan nan nan nan nan nan nan nan nan -0 -0 nan -0 -0 -0 nan -0 -0 -0 -0 -0 -0 -0 -0 -0 -0 -0 -0 nan nan nan nan nan -0 -0 -0 -0 -0 -0 -0 -0 -0 nan nan nan nan nan nan nan nan nan nan nan nan nan nan nan nan nan nan nan nan nan nan nan nan nan
nan nan nan nan nan nan nan nan nan nan nan nan nan nan nan nan nan nan nan nan nan nan nan nan nan nan nan nan -0 -0 -0 nan nan nan nan -0 -0 -0 -0 -0 -0 -0 -0 -0 -0 -0 -0 nan nan nan -0 -0 -0 -0 -0 -0 -0 -0 -0 -0 -0 -1 -1 -0 -0 -0 nan nan nan nan nan nan nan nan nan nan nan nan nan nan nan nan nan nan nan nan
nan nan nan nan nan nan nan nan nan nan nan nan nan nan nan nan nan nan nan nan nan nan nan nan nan nan nan nan -0 -0 -0 nan nan nan -0 -0 -0 -0 -0 -0 -0 -0 -0 -0 -0 -0 -0 nan nan nan nan -0 -0 -0 -0 -0 -0 -0 -0 -0 -0 -0 nan -0 -0 -0 nan nan nan nan nan nan nan nan nan nan nan nan nan nan nan nan nan nan nan nan
nan nan nan nan nan nan nan nan nan nan nan nan nan nan nan nan nan nan nan nan nan nan nan nan nan nan nan -0 -0 -0 -0 -0 nan nan -0 -0 -0 -0 -0 -0 -0 -0 -0 -0 -0 -0 -0 -0 -0 nan -0 nan nan nan -0 -0 -0 -0 -0 -0 -0 -0 -0 -0 -0 -0 nan nan nan nan nan nan nan nan nan nan nan nan nan nan nan nan nan nan nan nan
nan nan nan nan nan nan nan nan nan nan nan nan nan nan nan nan nan nan nan nan nan nan nan nan nan nan -0 -0 -0 -0 -0 -0 -0 -0 -0 -0 -0 -0 -0 nan nan -0 -0 -0 -0 -0 -0 -0 -0 -0 -0 nan nan nan -2 -0 -0 -0 -0 -0 -0 -1 -1 -1 -1 -1 -1 -1 -0 -0 -0 nan nan nan nan nan nan nan nan nan nan nan nan nan nan nan
nan nan nan nan nan nan nan nan nan nan nan nan nan nan nan nan nan nan nan nan nan nan nan nan nan nan -0 -0 -0 -0 -0 nan nan nan -0 nan -0 -0 -0 nan nan -0 -0 -0 -0 -0 -0 -0 -0 -0 -0 -0 nan nan nan nan nan -1 -0 -0 -0 -0 -0 -0 -0 -0 -0 -0 -0 -0 -1 -1 -1 -1 -1 -1 -3 -3 -3 -4 -4 nan nan nan nan nan
nan nan nan nan nan nan nan nan nan nan nan nan nan nan nan nan nan nan nan nan nan nan nan nan nan nan -0 -0 -0 -0 -0 nan nan nan -0 nan -0 -0 nan nan nan -0 -0 -0 -0 -0 -0 -0 -0 -0 -0 -0 -0 -0 -0 nan nan -0 -0 -0 -0 -0 -0 -0 -0 -0 nan -0 nan nan -0 -0 -4 -4 -2 -1 -2 -2 -1 -2 -2 -1 -2 -2 -2 -3
nan nan nan nan nan nan nan nan nan nan nan nan nan nan nan nan nan nan nan nan nan nan nan nan nan nan -0 nan -0 -0 -0 nan nan nan nan nan -0 -0 -0 nan nan nan -0 -0 -0 -0 -0 -0 -0 -0 -0 -0 -0 -0 -0 nan nan -0 -0 -0 -0 -0 -0 -0 -0 nan -0 nan -0 -0 nan nan nan nan nan nan nan nan nan nan nan -1 -1 -1 -1 -0
nan nan nan nan nan nan nan nan nan nan -0 -0 -0 -0 nan nan nan nan nan nan nan nan nan nan nan nan -0 nan nan nan -0 nan nan nan nan nan -0 -0 -0 nan nan nan -0 -0 -0 -0 -0 -0 -0 -0 -0 nan nan nan -0 nan nan nan nan -0 -0 -0 -0 -0 -0 nan nan nan nan nan nan nan nan nan nan nan nan nan nan nan nan -0 -0 -0 -0 -0
nan nan nan nan nan nan nan nan -0 -0 -0 -0 -0 -0 nan nan nan nan nan nan nan nan nan nan nan nan nan nan nan nan nan -0 nan nan nan nan nan nan nan nan nan nan nan -0 -0 -0 nan nan nan nan nan nan nan nan nan nan nan -0 -0 nan nan nan nan nan nan nan nan nan nan nan nan nan nan nan nan nan nan nan nan nan nan nan -0 -0 -0 -0
nan nan nan nan nan nan nan -0 -0 -0 -0 -0 -0 -0 nan nan nan nan nan nan nan nan nan nan nan nan nan nan -0 -0 -0 nan nan nan nan nan nan nan nan nan nan nan nan -0 -0 -0 -0 nan nan nan nan nan nan nan nan nan nan nan nan nan nan nan nan nan nan nan nan nan nan nan nan nan nan nan nan nan nan nan nan nan nan nan -0 -0 -0 -0
nan nan nan nan nan nan nan nan -0 -0 -0 -0 -0 -0 nan nan nan nan nan nan nan nan nan nan nan nan nan nan -0 -0 -0 nan nan nan nan nan nan nan nan nan nan nan nan nan nan -0 -0 nan nan nan nan nan nan nan nan nan nan nan nan nan nan nan nan nan nan nan nan nan nan nan nan nan nan nan nan nan nan nan nan nan nan nan -0 -0 -0 -0
nan nan nan nan nan nan nan nan nan nan nan nan nan nan nan nan nan nan nan nan nan nan nan nan nan nan nan nan nan nan nan nan nan nan nan nan nan nan nan nan nan nan nan nan nan nan nan nan nan nan nan nan nan nan nan nan nan nan nan nan nan nan nan nan nan nan nan nan nan nan nan nan nan nan nan nan nan nan nan nan nan nan nan nan nan -0
nan nan nan nan nan nan nan nan nan nan nan nan nan nan nan nan nan nan nan nan nan nan nan nan nan nan nan nan nan nan nan nan nan nan nan nan nan nan nan nan nan nan nan nan nan nan nan nan nan nan nan nan nan nan nan nan nan nan nan nan nan nan nan nan nan nan nan nan nan nan nan nan nan nan nan nan nan nan nan nan nan nan nan nan nan nan
nan nan nan nan nan nan nan nan nan nan nan nan nan nan nan nan nan nan nan nan nan nan nan nan nan nan nan nan nan nan nan nan -0 -0 nan nan nan nan nan nan nan nan nan nan nan nan nan nan nan nan nan nan nan nan nan nan nan nan nan nan nan nan nan nan nan nan nan nan nan nan nan nan nan nan nan nan nan nan nan nan nan nan nan nan nan nan
nan nan nan nan nan nan nan nan nan nan nan nan -0 -0 nan nan nan nan nan nan nan nan nan nan nan nan nan nan nan nan nan nan -0 -0 nan nan nan nan nan nan nan nan nan nan nan nan nan nan nan nan nan nan nan nan nan nan nan nan nan nan nan nan nan nan nan nan nan nan nan nan nan nan nan nan nan nan nan nan nan nan nan nan nan nan nan nan
nan nan nan nan nan nan nan nan nan nan nan -0 -0 -0 -0 nan nan nan nan nan nan nan nan nan nan nan nan nan nan nan nan nan nan nan nan nan nan nan nan nan nan nan nan nan nan nan nan nan nan nan nan nan nan nan nan nan nan nan nan nan nan nan nan nan nan nan nan nan nan nan nan nan nan nan nan nan nan nan nan nan nan nan nan nan nan nan
nan nan nan nan nan nan nan nan nan nan nan nan -0 -0 -0 nan nan nan nan nan nan nan nan nan nan nan nan nan nan nan nan nan nan nan nan nan nan nan nan nan nan nan nan nan nan nan nan nan nan nan nan nan nan nan nan nan nan nan nan nan nan nan nan nan nan nan nan nan nan nan nan nan nan nan nan nan nan nan nan nan nan nan nan nan nan nan
nan nan nan nan nan nan nan nan nan nan -0 -0 -0 -0 nan nan nan nan nan nan nan nan nan nan nan nan nan nan nan nan nan nan nan nan nan nan nan nan nan nan nan nan nan nan nan nan nan nan nan nan nan nan nan nan nan nan nan nan nan nan nan nan nan nan nan nan nan nan nan nan nan nan nan nan nan nan nan nan nan nan nan nan nan nan nan nan
nan nan nan nan nan nan nan nan -0 -0 -0 -0 -0 -0 nan nan nan nan nan nan nan nan nan nan nan nan nan -0 -0 -0 nan nan nan nan nan nan nan nan nan nan nan nan nan nan nan nan nan nan nan nan nan nan nan nan nan nan nan nan nan nan nan nan nan nan nan nan nan nan nan nan nan nan nan nan nan nan nan nan nan nan nan nan nan nan nan nan
nan nan nan -0 -0 nan nan -0 -0 -0 -0 nan nan nan nan nan nan nan nan nan nan nan nan nan nan nan nan nan nan nan -0 -0 nan nan nan nan nan nan nan nan nan nan nan nan nan nan nan nan nan nan nan nan nan nan nan nan nan nan nan nan nan nan nan nan nan nan nan nan nan nan nan nan nan nan nan nan nan nan nan nan nan nan nan nan nan nan
nan nan -0 -0 -0 -0 -0 -0 -0 -0 -0 nan nan nan nan nan nan nan nan nan nan nan nan nan nan nan nan nan nan nan nan -0 nan nan nan nan nan nan nan nan nan nan nan nan nan nan nan nan nan nan nan nan nan nan nan nan nan nan nan nan nan nan nan nan nan nan nan nan nan nan nan nan nan nan nan nan nan nan nan nan nan nan nan nan nan nan
nan nan -0 -0 -0 nan nan -0 -0 -0 nan nan nan nan nan nan nan nan nan nan nan nan nan nan nan nan nan nan nan nan nan nan -0 -0 nan nan nan nan nan nan nan nan nan nan nan nan nan nan nan nan nan nan nan nan nan nan nan nan nan nan nan nan nan nan nan nan nan nan nan nan nan nan nan nan nan nan nan nan nan nan nan nan nan nan nan nan
nan -0 nan -0 -0 nan nan -0 -0 -0 nan nan nan nan nan nan nan nan nan nan nan nan nan nan nan nan nan nan nan nan nan nan nan nan nan nan nan nan nan nan nan nan nan nan nan nan nan nan nan nan nan nan nan nan nan nan nan nan nan nan nan nan nan nan nan nan nan nan nan nan nan nan nan nan nan nan nan nan nan nan nan nan nan nan nan nan
-0 nan nan nan nan nan nan nan nan nan nan nan nan nan nan nan nan nan nan nan nan nan nan nan nan nan nan nan nan nan nan nan nan nan nan nan nan nan nan nan nan nan nan nan nan nan nan nan nan nan nan nan nan nan nan nan nan nan nan nan nan nan nan nan nan nan nan nan nan nan nan nan nan nan nan nan nan nan nan nan nan nan nan nan nan nan
-1 nan nan -0 -0 nan nan nan nan nan nan nan nan nan nan nan nan nan nan nan nan nan nan nan nan nan nan nan nan nan nan nan nan nan nan -0 -0 -0 nan nan nan nan nan nan nan nan nan nan nan nan nan nan nan nan nan nan nan nan nan nan nan nan nan nan nan nan nan nan nan nan nan nan nan nan nan nan nan nan nan nan nan nan nan nan nan nan
nan nan nan nan nan nan -0 nan nan nan nan nan nan nan nan nan nan nan nan nan nan nan nan nan nan nan nan nan nan nan nan nan nan nan nan nan nan nan nan nan nan nan nan nan nan nan nan nan nan nan nan nan nan nan nan nan nan nan nan nan nan nan nan nan nan nan nan nan nan nan nan nan nan nan nan nan nan nan nan nan nan nan nan nan nan nan
nan nan nan nan nan nan nan nan nan nan nan nan nan nan nan nan nan nan nan nan nan nan nan nan nan nan nan nan nan nan nan nan nan nan nan nan nan nan nan nan nan nan nan nan nan nan nan nan nan nan nan nan nan nan nan nan nan nan nan nan nan nan nan nan nan nan nan nan nan nan nan nan nan nan nan nan nan nan nan nan nan nan nan nan nan nan
nan nan nan nan nan -1 nan nan nan nan nan nan nan nan nan nan nan nan nan nan nan nan nan nan nan nan nan nan nan nan nan nan nan nan nan nan nan nan nan nan nan nan nan nan nan nan nan nan nan nan nan nan nan nan nan nan nan nan nan nan nan nan nan nan nan nan nan nan nan nan nan nan nan nan nan nan nan nan nan nan nan nan nan nan nan nan
nan -1 -1 -1 -1 -1 -1 nan nan nan nan -0 -0 -0 -0 nan nan nan nan nan nan nan nan nan nan nan nan nan nan nan nan nan nan nan nan nan nan nan nan nan nan nan nan nan nan nan nan nan nan nan nan nan nan nan nan nan nan nan nan nan nan nan nan nan nan nan nan nan nan nan nan nan nan nan nan nan nan nan nan nan nan nan nan nan nan nan
-1 -1 -1 -1 -1 -1 -1 -0 -0 -0 -0 -0 -0 -0 -0 -0 nan nan nan nan nan nan nan nan nan nan nan nan nan nan nan nan nan nan nan nan nan nan nan nan nan nan nan nan nan nan nan nan nan nan nan nan nan nan nan nan nan nan nan nan nan nan nan nan nan nan nan nan nan nan nan nan nan nan nan nan nan nan nan nan nan nan nan nan nan nan
-1 -1 -2 -1 -1 -1 nan -0 nan nan nan nan -0 -0 -0 -0 nan nan nan nan nan nan nan nan nan nan nan nan nan nan nan nan nan nan nan nan nan nan nan nan nan nan nan nan nan nan nan nan nan nan nan nan nan nan nan nan nan nan nan nan nan nan nan nan nan nan nan nan nan nan nan nan nan nan nan nan nan nan nan nan nan nan nan nan nan nan
Wind_Speed
2 3 4 6 6 5 4 5 6 5 5 4 4 3 3 2 3 4 4 3 3 4 5 5 6 6 6 6 7 8 8 9 9 10 10 10 11 11 11 10 10 10 9 9 8 9 9 9 8 7 7 6 5 4 3 2 1 1 2 5 7 9 9 8 8 9 9 10 12 13 14 14 14 13 12 12 12 12 12 12 12 11 11 10 10 11
2 3 3 5 6 5 4 6 6 6 6 5 5 4 3 3 3 3 3 2 2 3 4 4 5 6 6 6 6 7 7 8 8 9 9 10 10 10 10 10 9 9 9 9 8 9 9 9 8 7 6 5 5 4 3 3 3 4 5 6 7 8 8 8 9 9 9 10 11 12 13 13 12 12 11 11 12 11 11 11 10 10 9 9 10 10
3 3 3 5 5 5 4 6 6 6 6 6 6 5 5 5 4 3 2 2 2 2 3 3 4 4 5 5 5 6 6 7 7 8 8 8 9 9 9 9 9 8 8 8 8 9 10 10 9 8 7 6 5 5 4 4 4 5 7 7 8 8 8 9 9 9 9 10 10 11 11 11 11 10 11 11 11 11 11 10 9 8 8 8 9 9
4 4 4 4 4 4 4 5 5 5 5 6 6 6 6 5 3 3 2 2 2 2 2 3 3 3 3 4 4 5 5 6 6 6 7 7 7 8 8 8 8 7 7 7 8 10 11 11 11 10 9 8 7 6 6 6 5 6 6 7 8 8 9 9 9 9 9 8 9 9 10 10 10 10 10 11 11 11 11 10 9 8 7 7 8 9
4 5 5 4 3 3 4 5 5 6 6 6 6 5 5 3 3 2 2 2 2 2 2 3 3 3 2 2 3 4 4 5 5 6 6 6 7 7 7 7 7 6 6 7 8 10 12 12 12 11 10 9 9 8 8 7 7 7 7 7 8 9 9 9 8 8 8 7 8 8 9 10 10 10 10 10 11 11 11 11 10 10 9 8 8 9
5 4 4 4 3 3 2 3 4 5 6 5 5 4 4 3 3 3 3 2 2 2 2 2 3 3 2 2 2 2 3 4 4 5 5 5 6 6 6 6 6 6 6 7 9 11 13 13 12 12 11 11 10 10 10 9 8 8 8 9 9 9 9 9 8 8 7 7 8 8 9 10 10 10 10 10 10 10 11 11 11 11 11 11 10 10
5 4 3 3 2 2 2 2 4 5 6 5 4 4 3 3 3 3 3 3 2 2 2 2 2 2 3 2 2 1 1 3 3 4 4 4 4 4 5 5 5 5 6 7 9 11 13 13 13 12 12 12 11 11 11 10 10 10 10 10 10 10 10 9 9 8 9 9 9 9 9 10 10 10 10 10 10 10 10 10 10 11 11 11 11 11
6 4 4 3 3 2 2 2 3 4 6 6 6 5 4 3 2 3 3 3 3 2 2 2 2 2 2 2 1 1 0 1 2 3 3 3 3 3 3 4 5 6 7 8 9 12 14 14 13 13 12 12 12 12 12 11 11 11 11 11 10 10 10 10 10 10 10 10 10 10 10 10 10 10 10 10 10 10 9 9 9 10 10 10 10 10
8 6 5 5 4 4 3 2 2 3 4 5 6 6 6 5 4 3 3 2 2 2 2 2 2 2 2 1 1 1 1 1 1 1 1 1 1 2 2 4 5 6 7 8 9 11 14 14 13 13 13 13 12 12 12 12 11 11 11 11 11 11 11 11 11 11 11 11 11 11 10 10 10 10 10 10 10 10 9 9 9 9 9 9 9 9
8 8 7 6 5 4 4 3 3 3 3 4 4 5 6 6 6 4 3 3 2 2 2 2 2 2 2 2 1 1 1 1 1 1 1 1 1 1 2 3 4 6 7 8 9 11 14 14 14 13 13 13 12 12 12 12 11 11 11 11 11 11 12 12 12 12 12 12 12 11 11 11 10 10 10 10 10 10 9 9 9 8 8 8 8 7
6 7 6 5 4 3 3 3 3 3 4 3 3 2 3 5 6 6 6 5 4 3 2 2 2 2 2 2 1 1 0 1 1 1 2 2 2 2 2 3 4 5 6 7 8 10 13 14 14 13 12 12 12 12 12 11 11 12 12 12 12 12 12 12 13 13 13 12 12 12 11 11 10 10 10 10 10 9 9 9 8 8 8 7 7 7
6 5 5 5 4 4 3 3 3 3 4 3 3 2 3 4 5 5 6 6 6 5 4 2 2 1 1 1 1 1 0 0 0 1 1 2 2 2 2 2 3 4 5 6 7 9 12 14 14 13 12 12 12 12 11 11 12 12 12 12 12 12 12 13 13 13 13 13 12 12 11 11 10 10 10 9 9 9 8 8 8 8 7 7 7 6
5 5 5 5 5 5 4 4 4 4 4 4 6 6 6 5 5 4 4 5 5 5 4 3 2 1 1 1 1 1 1 1 1 1 1 1 1 1 1 1 2 3 4 4 5 6 10 13 13 12 12 12 12 12 11 11 12 12 13 13 13 13 12 13 13 13 13 13 12 11 11 10 10 9 9 9 8 8 8 7 7 7 7 6 6 6
6 5 5 5 5 5 5 6 6 6 6 7 8 7 6 5 4 4 3 3 3 4 4 3 3 2 1 1 1 1 1 1 1 1 1 1 0 1 1 1 2 3 4 4 4 5 7 10 10 10 11 12 12 12 11 12 12 13 13 13 13 13 12 13 13 13 13 13 12 11 11 10 9 9 8 8 8 7 7 7 7 6 6 6 5 5
7 7 7 7 6 6 6 7 8 8 8 8 6 5 4 5 5 5 4 4 4 4 3 3 2 2 1 1 1 1 1 1 2 2 2 1 1 0 1 1 2 3 3 3 3 4 6 7 7 7 8 11 11 11 11 12 12 13 13 13 13 13 13 13 13 13 13 12 12 11 10 10 9 8 8 7 7 7 7 7 6 6 6 6 5 5
7 7 8 8 8 7 7 7 8 8 8 7 6 5 6 6 6 6 6 5 5 4 4 4 3 2 2 2 2 2 2 2 2 2 3 2 1 1 1 1 1 2 1 1 1 1 3 5 6 6 7 9 11 11 12 12 13 13 13 13 13 13 13 12 12 13 12 12 11 11 10 10 9 8 8 7 7 7 7 6 6 6 6 6 5 5
7 7 8 8 8 8 7 7 7 7 7 6 6 6 6 7 7 7 6 5 5 4 4 4 4 3 2 2 3 3 3 2 2 3 3 2 1 1 1 1 1 2 2 2 2 1 1 3 4 5 6 9 11 12 12 13 13 13 13 13 13 13 12 12 12 12 12 12 11 11 10 9 9 8 8 8 7 7 7 6 6 6 5 5 5 4
7 7 8 8 8 7 7 7 6 6 6 6 6 6 5 5 6 6 6 5 5 5 5 5 4 4 3 3 3 4 4 3 3 3 3 2 1 1 1 1 1 2 3 2 2 2 2 1 3 5 7 10 12 13 13 13 13 13 13 13 12 12 12 12 12 12 12 11 11 11 10 9 9 8 8 8 7 7 7 6 6 6 5 5 4 4
7 7 8 8 7 7 7 7 7 7 8 8 7 7 6 5 5 5 5 5 5 6 6 5 4 3 3 3 3 4 4 3 3 3 3 2 1 1 1 1 2 3 3 2 2 2 2 1 2 6 9 12 13 13 13 14 13 13 13 12 12 12 11 11 11 11 11 11 11 10 10 9 9 8 8 8 7 7 7 6 6 5 5 4 4 3
8 7 8 7 7 7 7 8 9 9 9 9 9 8 7 6 6 6 5 5 5 5 4 4 4 3 2 3 3 3 3 3 3 3 3 3 2 1 1 1 2 3 3 2 2 2 2 1 2 6 10 11 13 13 14 14 14 13 13 12 12 11 11 10 10 10 10 10 10 10 9 9 8 8 8 8 7 7 7 6 6 5 5 4 4 3
9 9 9 8 7 8 8 9 10 10 11 10 9 8 7 7 7 7 6 6 5 5 4 4 3 3 3 3 3 3 3 3 3 3 3 2 2 1 1 1 2 4 4 2 2 2 2 2 2 3 7 11 12 13 13 13 13 13 13 12 11 11 10 10 10 10 10 10 9 9 9 8 8 8 8 7 7 7 7 6 6 6 5 5 4 4
9 10 10 9 9 9 9 10 11 12 12 12 11 9 8 9 9 8 8 7 6 6 5 3 3 3 3 3 3 3 2 2 2 3 3 3 2 1 1 0 2 3 4 2 1 2 2 3 3 3 5 9 12 13 13 13 13 13 12 11 11 10 9 9 9 9 9 9 9 8 8 8 8 8 8 8 7 7 7 7 6 6 6 6 5 5
10 10 10 10 9 8 8 9 10 11 12 12 11 10 8 10 10 10 9 8 7 6 4 4 4 4 4 4 3 2 1 1 1 2 3 4 4 3 1 0 1 3 3 2 2 2 3 3 4 4 5 8 10 11 12 12 12 12 11 11 10 9 9 8 8 8 8 8 8 8 8 8 8 8 8 8 8 8 8 7 7 7 7 7 6 6
10 9 9 9 9 7 7 8 9 9 9 8 7 5 5 6 7 7 8 7 6 6 5 5 5 4 4 4 3 2 1 1 2 2 2 3 4 3 1 1 2 3 3 2 1 2 3 3 3 4 5 7 8 9 10 10 11 11 10 10 9 8 8 7 7 6 6 6 6 7 7 8 8 8 9 9 9 9 9 9 9 8 8 8 8 8
8 8 8 9 9 9 8 9 10 11 10 8 6 5 6 7 8 8 8 7 7 7 6 6 5 4 3 3 3 2 2 1 2 2 2 3 3 3 1 1 2 3 3 2 1 1 2 3 3 3 4 6 8 8 8 9 9 10 10 9 8 7 7 6 5 5 4 4 4 4 4 5 5 6 7 7 8 8 9 9 9 10 10 9 9 9
7 7 8 10 11 13 13 14 15 15 14 11 9 8 9 9 10 9 8 7 7 7 7 6 5 4 3 3 3 3 2 1 2 2 1 3 4 3 2 1 2 3 4 2 1 2 3 3 2 3 3 4 6 8 8 8 9 9 10 9 9 8 7 6 6 6 5 5 5 4 3 3 2 1 1 2 3 4 5 6 8 9 10 10 10 10
10 11 13 14 16 17 18 19 20 20 20 17 15 13 12 11 11 10 8 8 8 8 8 7 6 5 4 3 3 3 3 2 1 2 2 3 4 4 2 2 2 3 4 3 2 2 3 3 2 2 3 3 4 5 7 8 8 9 10 9 9 8 7 7 7 6 6 6 5 5 5 5 4 3 3 2 2 1 2 3 4 5 7 8 8 9
14 15 16 17 18 19 20 21 22 22 22 21 21 19 15 12 11 11 10 9 8 8 8 8 7 6 5 4 3 3 2 2 2 2 2 2 4 4 3 3 3 3 4 3 2 3 3 3 2 2 2 2 3 4 5 7 7 9 9 9 9 9 8 7 7 6 6 6 5 5 4 4 4 3 3 3 2 2 3 3 3 3 4 5 5 6
16 16 17 18 19 20 21 21 22 22 23 23 21 18 13 10 10 10 10 9 9 8 8 8 7 6 5 4 4 3 2 2 2 2 2 2 3 3 3 3 3 3 4 3 3 2 2 2 2 2 2 2 2 2 3 5 6 7 8 9 9 9 8 8 7 7 6 6 5 5 4 3 3 2 2 2 2 2 2 3 3 3 3 3 3 3
13 14 15 16 17 17 17 17 18 20 22 21 19 14 9 7 7 8 8 9 9 8 8 7 7 6 5 5 4 3 2 3 3 3 3 3 3 4 4 3 3 3 3 3 3 2 2 2 2 1 1 2 2 2 2 3 3 4 5 7 7 7 7 7 7 7 6 6 5 5 4 3 3 2 2 2 2 2 2 3 3 2 2 2 2 2
11 11 11 11 12 12 11 11 12 14 16 16 13 10 7 6 6 6 7 7 7 7 7 7 7 7 7 6 5 4 3 4 4 4 3 3 4 4 5 4 4 3 2 2 3 3 3 2 2 2 1 2 2 2 2 2 2 2 3 4 4 5 6 6 6 6 6 5 5 4 4 3 3 2 2 2 2 2 2 3 3 3 2 2 2 2
10 9 8 8 8 8 7 8 8 8 9 9 8 7 7 6 6 6 6 5 5 6 7 7 7 7 7 6 5 4 4 4 4 4 3 3 3 4 5 5 4 3 1 1 1 2 3 3 3 2 2 2 2 2 2 2 2 2 2 3 3 3 3 3 4 4 4 4 4 4 3 3 2 2 2 1 2 2 2 3 3 3 3 3 3 3
9 8 7 7 7 6 6 6 7 7 7 6 6 6 6 6 6 6 5 3 3 4 5 7 7 7 6 4 3 3 3 4 4 5 4 3 3 3 3 4 4 3 2 1 1 0 2 3 3 3 3 2 2 2 2 2 2 1 2 2 2 2 2 2 2 2 2 2 2 2 2 2 1 1 1 1 1 2 2 3 3 3 3 3 3 3
10 9 8 7 7 7 7 7 7 7 7 6 6 6 6 6 6 6 5 4 3 3 3 5 6 6 6 4 3 3 3 4 5 5 4 4 3 4 4 4 4 4 3 2 1 2 2 3 3 4 3 3 2 2 2 2 2 1 1 2 2 2 1 1 1 1 1 1 1 1 1 0 0 0 0 1 1 2 2 3 3 4 4 3 3 3
10 9 8 8 7 7 7 8 8 7 7 6 6 6 6 6 6 6 6 5 5 4 4 3 3 3 4 4 4 4 4 4 5 5 4 3 3 4 4 4 4 5 4 3 3 3 2 3 4 4 4 3 3 2 2 2 2 1 1 2 2 2 1 1 1 0 0 1 1 1 1 1 1 1 1 1 2 2 3 3 4 4 4 4 4 4
10 9 8 8 8 8 8 8 8 8 7 6 6 6 6 6 6 6 5 5 6 6 6 5 4 4 3 3 4 5 6 6 6 5 4 3 3 3 4 4 4 4 4 4 4 3 3 4 4 5 5 4 3 3 3 2 2 2 2 2 2 2 1 1 1 1 0 1 1 1 1 1 1 1 1 2 2 3 3 3 3 3 3 4 4 4
10 9 8 7 7 8 8 8 8 7 7 6 6 5 5 6 6 6 6 6 6 6 7 7 7 7 7 5 5 6 7 6 6 5 3 2 2 2 3 3 3 3 3 4 4 4 4 4 4 4 4 4 3 3 3 3 3 2 2 2 2 2 2 1 1 1 1 1 1 1 1 1 1 1 2 2 3 3 3 3 3 3 3 3 4 4
9 9 8 7 7 7 8 7 7 7 7 6 6 6 6 6 6 6 6 6 7 7 7 7 7 9 11 11 10 9 8 8 7 5 4 2 1 2 3 3 3 3 2 3 4 4 5 5 5 4 4 3 3 3 4 4 3 3 3 2 2 2 1 1 1 1 1 1 1 1 1 1 2 2 2 2 2 3 3 2 2 2 2 3 3 4
9 8 8 8 7 7 8 7 7 7 7 7 6 6 6 7 7 7 7 7 8 8 9 8 8 9 11 12 12 11 10 9 7 6 5 3 2 2 4 4 4 3 2 2 2 3 4 4 4 4 4 3 3 3 3 3 3 3 3 3 2 2 2 1 1 1 1 1 1 1 1 1 2 2 2 2 2 2 2 2 1 1 1 2 3 3
9 9 8 8 8 8 8 8 8 8 7 7 7 7 7 7 7 7 7 8 8 9 10 10 9 8 9 9 10 10 9 8 6 6 4 3 2 2 3 4 4 4 3 2 1 2 3 3 3 4 4 4 4 4 3 3 3 3 3 3 2 2 2 2 1 1 0 1 1 1 1 1 2 2 2 2 2 2 2 2 1 1 1 2 2 2
9 9 9 8 8 9 9 9 8 8 7 7 7 6 6 6 7 7 7 8 8 8 8 8 9 8 8 8 8 8 8 7 7 6 5 4 4 3 4 4 4 4 3 3 2 2 2 2 3 3 3 4 4 4 4 4 3 3 2 2 2 2 3 2 1 0 0 0 1 1 2 2 2 2 2 2 2 1 1 2 2 2 2 1 2 2
10 10 9 8 8 8 8 9 8 8 7 7 6 6 6 6 7 7 7 7 7 7 6 7 7 8 8 7 7 7 7 7 7 7 6 6 6 5 5 4 4 3 3 3 3 3 2 3 3 3 3 4 4 4 4 4 3 2 1 1 2 2 3 2 1 0 0 0 0 1 1 2 2 2 2 2 2 1 1 1 2 2 2 2 2 1
10 9 9 9 9 9 10 9 9 8 7 6 6 6 5 6 6 7 8 8 7 7 7 7 7 7 8 7 6 6 6 6 7 7 7 7 7 6 5 5 4 3 3 3 3 3 3 3 3 3 3 3 4 4 4 4 3 3 2 1 1 2 2 2 2 1 0 0 1 1 2 2 2 2 2 2 2 1 1 1 2 2 2 2 2 1
10 10 10 10 9 9 9 8 7 7 7 6 6 6 5 6 7 7 7 7 7 7 6 6 7 7 7 7 6 5 4 5 6 7 7 8 7 7 6 5 5 4 3 3 3 3 3 3 3 3 3 2 3 3 4 4 4 3 2 1 0 1 1 1 1 1 0 0 1 1 2 2 2 3 3 2 2 1 1 1 1 2 2 2 2 2
10 10 10 9 9 9 9 8 7 7 6 6 6 6 6 6 7 7 7 7 7 7 6 6 6 6 6 6 6 5 4 4 4 5 6 7 7 7 6 6 5 5 4 4 3 3 3 3 3 3 2 2 3 3 4 4 4 3 3 2 1 1 2 2 1 1 0 1 1 2 2 2 3 3 3 2 1 1 1 1 1 1 1 1 1 1
10 10 10 9 9 9 9 9 8 7 7 7 6 6 6 6 6 7 7 7 7 6 6 6 5 5 6 6 6 5 5 4 4 4 4 4 5 5 6 6 5 5 4 4 4 4 3 3 3 3 3 3 3 3 3 3 3 3 3 3 2 2 2 2 1 1 1 1 2 2 3 3 3 3 2 1 0 0 1 1 0 0 0 0 0 1
11 11 10 9 9 9 9 8 8 8 8 7 7 6 6 6 6 7 7 7 7 6 6 5 5 6 6 6 6 6 6 5 5 4 4 4 4 4 5 5 5 5 5 5 5 5 5 4 3 3 3 3 3 3 2 2 2 3 3 3 3 3 3 2 2 1 1 2 2 2 3 3 3 2 2 1 1 0 1 1 1 1 1 1 1 1
11 11 10 10 9 9 9 8 8 8 8 8 7 6 6 6 7 7 7 6 6 6 6 5 6 6 6 6 6 6 6 6 6 5 5 4 4 4 4 4 4 4 5 5 5 5 5 5 4 3 2 1 2 3 3 3 2 2 3 3 3 3 3 2 2 2 1 2 2 2 3 3 2 2 2 2 1 0 1 1 1 1 1 0 1 1
10 11 10 10 10 10 9 9 9 9 9 9 8 7 6 7 8 8 7 6 6 6 5 6 6 6 6 6 5 6 6 6 6 5 5 4 4 4 4 4 4 4 4 4 5 4 4 4 4 4 4 3 1 2 4 3 3 2 2 2 2 2 2 2 2 2 1 2 1 0 2 2 2 2 2 2 2 1 0 0 1 1 1 0 0 1
10 10 10 10 10 10 10 9 9 9 9 9 8 8 7 7 6 6 6 6 6 5 5 6 6 6 6 6 6 6 6 6 6 5 5 5 4 4 4 4 4 4 4 4 3 3 3 3 3 3 4 4 3 1 3 4 4 3 2 2 1 1 2 2 2 2 1 1 1 1 1 1 1 2 2 2 2 2 1 0 0 1 1 0 0 1
9 9 9 9 9 9 9 9 9 9 9 9 9 8 8 7 6 6 6 6 6 6 6 6 6 6 6 6 6 6 6 6 6 6 6 5 5 5 5 5 5 5 5 4 4 3 3 3 3 3 3 3 3 2 1 3 4 4 3 2 2 1 1 1 2 1 1 0 0 1 1 1 1 1 2 2 2 2 1 1 1 1 1 1 1 1
Wind_Direction
106 120 122 126 129 135 142 145 144 140 138 138 136 131 118 107 110 120 132 140 141 138 134 130 130 131 133 136 140 143 147 149 150 151 150 151 152 154 156 160 164 169 174 176 176 174 172 172 171 168 164 162 159 155 150 145 128 111 128 143 142 137 129 117 106 97 87 79 74 71 69 70 72 74 77 81 84 88 91 94 97 99 102 103 103 102
101 109 116 132 136 138 139 150 152 150 147 146 145 144 145 141 136 130 130 122 122 125 128 128 130 134 137 137 142 146 150 152 154 155 155 156 157 158 160 162 165 169 175 179 180 178 174 170 166 163 160 156 151 144 134 121 98 85 85 101 109 111 109 106 102 98 93 89 84 79 75 72 70 71 75 79 83 85 87 90 94 98 102 104 104 104
131 128 134 143 146 146 141 151 153 150 146 145 146 151 159 156 150 141 134 130 117 107 108 117 125 130 134 134 141 149 153 156 158 160 160 161 162 163 164 166 168 171 176 182 184 181 175 169 165 162 160 158 152 144 137 127 112 99 91 92 93 94 97 97 97 97 95 93 90 87 83 78 74 71 73 75 77 78 79 82 87 94 102 107 109 109
148 149 148 147 149 150 146 147 143 136 131 132 139 149 161 159 150 137 129 129 115 99 88 96 105 114 121 125 135 146 156 161 163 165 166 167 168 169 170 171 173 175 180 187 188 184 176 169 165 163 162 162 158 152 146 138 127 116 106 101 99 98 98 98 99 99 98 96 93 91 88 85 82 78 75 74 74 73 72 72 74 80 90 101 108 110
161 158 150 148 143 141 142 138 134 127 119 120 128 139 150 143 132 120 110 104 96 88 80 78 82 88 94 104 124 141 156 164 168 170 172 173 175 177 178 177 178 180 186 192 191 184 175 169 165 164 165 165 162 157 152 146 138 129 119 114 110 109 108 108 107 106 104 100 96 92 89 87 85 82 79 77 76 75 73 71 69 69 71 80 88 94
163 157 146 145 139 132 134 139 138 133 124 120 122 125 127 124 122 121 118 108 97 86 77 68 64 64 67 72 97 129 154 167 171 173 176 179 182 184 185 184 185 188 196 196 190 181 172 167 165 165 167 167 165 160 154 150 145 138 130 124 121 119 117 115 114 112 109 103 98 93 89 87 85 82 79 78 77 77 76 74 71 68 66 66 69 73
151 144 135 130 120 114 124 147 150 146 137 131 128 125 121 120 122 124 126 122 115 105 94 79 68 61 58 57 64 92 154 172 176 177 179 183 187 190 193 194 198 202 208 202 191 179 169 166 165 166 169 168 165 161 155 152 148 143 138 132 129 125 122 119 117 113 110 104 99 94 90 88 86 83 80 78 77 77 77 77 75 72 68 65 63 62
145 140 139 133 121 113 121 152 161 156 147 142 142 143 142 136 128 122 120 117 117 119 116 106 94 81 68 62 57 59 177 189 188 187 186 188 191 197 204 211 215 218 221 209 194 179 168 166 167 168 170 169 165 160 156 153 149 146 141 137 132 129 125 122 118 114 109 105 101 97 94 91 89 86 83 80 78 76 76 77 76 75 72 68 63 60
148 150 154 151 145 140 145 157 168 166 153 148 150 154 157 155 149 138 129 125 124 123 123 124 122 115 102 88 74 44 320 262 234 210 194 187 187 200 216 223 225 227 230 219 201 183 170 168 169 170 171 169 165 160 156 153 150 147 143 138 134 130 128 124 120 115 111 108 105 101 98 95 92 90 87 84 80 77 75 74 74 73 72 69 66 61
147 150 152 151 150 150 151 155 162 165 155 147 152 159 161 160 158 157 159 160 151 134 117 117 123 126 123 111 92 59 342 304 305 329 22 32 20 313 251 240 234 232 235 228 210 190 174 171 171 172 172 168 164 159 156 152 149 146 143 138 135 132 129 126 121 117 113 110 107 104 100 97 94 91 89 86 83 79 75 72 70 69 68 66 63 60
145 148 146 143 142 141 141 146 151 151 143 130 130 145 166 167 166 166 172 174 168 153 130 107 104 115 124 114 98 73 29 326 335 6 31 27 14 342 294 265 250 243 241 235 217 195 178 173 172 172 171 167 163 159 156 152 149 146 142 139 136 133 131 127 124 120 117 114 110 107 103 100 96 93 90 87 84 80 76 72 68 65 63 60 57 53
149 149 144 139 137 135 130 128 132 136 138 134 139 159 190 192 185 178 178 176 170 160 147 126 107 98 112 115 107 85 69 67 40 40 36 28 13 349 310 269 250 243 240 241 224 200 181 173 171 171 169 166 163 159 157 153 150 146 142 139 137 134 132 129 126 123 120 117 114 111 108 104 101 97 94 91 87 84 80 76 72 67 63 58 53 48
151 149 143 139 141 143 144 144 146 151 161 171 179 184 188 188 188 186 181 171 162 153 143 133 125 117 120 130 136 137 132 135 120 96 66 39 16 355 321 258 229 221 221 232 225 203 181 173 170 169 168 165 162 159 156 153 150 145 142 139 136 135 133 131 128 126 123 121 119 116 114 111 108 104 101 98 96 92 88 84 80 75 71 65 58 51
150 147 142 145 151 156 161 164 166 170 180 189 192 190 178 167 166 169 165 148 136 129 126 126 129 136 143 157 163 161 155 151 144 140 138 115 55 357 313 249 215 203 204 209 212 200 178 170 168 167 166 164 161 159 157 153 149 145 141 138 136 135 133 132 130 128 126 124 123 121 119 116 114 111 109 106 104 101 98 94 90 86 82 76 69 62
154 152 151 156 162 168 173 174 176 179 185 189 187 176 146 146 155 165 163 148 134 122 118 123 132 146 165 167 168 170 167 162 158 157 156 144 121 40 307 253 214 198 196 200 202 190 172 166 163 163 164 164 163 161 158 154 148 143 141 138 136 135 134 133 132 130 129 127 126 125 124 122 120 118 117 114 112 110 107 103 100 96 91 86 81 74
158 159 161 165 169 174 179 178 179 181 183 181 174 162 153 160 167 171 169 155 143 135 137 143 154 172 194 169 164 170 178 174 167 160 154 142 118 57 324 267 201 164 147 146 151 159 158 155 155 156 158 160 159 156 154 153 149 144 141 138 137 136 136 135 135 133 132 131 130 130 129 128 127 126 126 124 122 121 118 115 111 107 102 97 92 87
163 166 168 169 173 177 179 178 178 177 173 169 168 170 171 172 171 169 165 152 146 147 158 162 167 176 190 175 172 175 181 178 169 158 148 137 109 45 336 299 139 121 99 72 42 26 55 136 143 148 154 155 153 151 149 148 146 143 140 138 137 137 137 138 137 137 136 136 135 135 134 135 135 135 135 135 134 132 131 128 124 120 116 112 108 102
171 174 172 173 175 175 171 174 175 173 167 165 168 172 176 172 166 162 159 154 156 163 171 174 176 175 172 174 171 169 172 176 169 158 146 137 112 44 350 350 99 107 100 76 42 8 355 93 140 148 149 149 148 147 145 144 143 142 140 138 137 137 138 140 141 141 141 140 140 140 141 142 143 144 145 145 145 144 142 140 138 135 133 130 126 122
177 178 178 179 176 170 166 171 173 172 171 171 169 167 166 164 161 158 159 161 167 172 174 178 180 178 166 159 149 148 162 176 174 161 146 141 120 52 360 27 95 102 97 80 45 7 343 359 139 146 145 145 145 144 143 142 142 141 140 139 138 139 141 144 146 147 147 146 146 146 147 149 151 153 154 155 155 155 155 154 153 152 151 150 149 146
180 184 188 182 173 167 170 177 179 178 176 171 166 162 163 162 162 161 162 166 172 176 172 174 173 168 148 129 123 131 160 178 173 156 142 137 124 78 3 69 110 110 99 78 38 2 342 3 119 135 140 142 142 143 142 142 141 141 140 139 140 141 145 149 152 154 153 152 152 152 153 156 159 162 164 166 167 167 168 169 170 170 171 172 174 175
185 192 195 183 173 170 178 182 182 179 173 163 159 159 164 163 164 166 165 165 168 172 171 171 163 147 126 121 128 143 169 178 170 155 137 132 123 98 17 73 115 116 106 82 33 359 353 22 65 117 139 141 141 141 140 140 140 140 140 140 141 144 149 155 159 161 160 159 158 159 161 165 169 173 176 178 179 181 183 185 186 188 190 193 195 198
190 194 194 186 182 179 180 178 176 173 165 161 162 166 170 169 170 169 165 164 166 168 166 152 124 100 93 104 119 137 168 193 183 162 141 140 141 136 59 46 113 118 110 93 47 16 21 34 39 69 121 134 137 138 138 138 139 139 140 141 144 149 156 163 168 170 169 167 167 168 171 177 181 185 188 191 193 195 197 199 201 203 206 208 211 213
192 190 186 187 186 182 172 166 164 164 163 167 171 175 174 172 170 166 161 160 157 150 133 111 94 84 83 94 105 116 141 245 236 194 153 151 151 148 109 82 113 115 109 96 66 43 47 48 43 46 68 104 119 129 135 137 139 141 142 145 150 156 166 173 178 180 180 179 180 182 186 191 195 199 202 204 205 207 209 211 213 215 218 219 221 223
190 184 179 182 181 174 159 155 155 158 163 168 170 167 158 153 145 140 136 134 128 119 110 103 97 93 96 108 115 123 152 235 252 237 177 151 141 135 122 131 123 117 108 93 73 64 68 60 47 37 36 60 79 99 118 129 135 138 140 144 149 156 165 173 177 179 182 182 186 192 196 203 208 211 213 215 216 217 219 220 222 224 226 227 228 229
181 176 173 173 168 161 153 152 154 155 157 154 146 131 118 109 103 101 101 105 109 113 116 116 117 120 126 134 138 143 163 208 242 243 189 134 125 123 121 141 130 121 114 103 85 83 88 72 53 36 28 38 50 65 85 104 116 123 126 128 131 136 142 145 147 148 147 150 158 171 182 200 209 215 221 224 225 226 227 229 230 231 232 233 233 233
157 157 158 156 152 149 147 148 150 152 151 148 143 137 128 117 110 106 107 114 123 129 131 133 138 142 143 147 151 154 157 185 234 245 198 134 129 131 131 142 126 120 117 109 92 84 88 77 58 38 27 25 35 46 61 79 96 107 111 112 112 112 112 114 112 110 108 105 104 105 110 108 116 141 200 234 240 240 242 241 241 240 240 239 238 237
131 136 141 142 141 141 142 144 146 147 148 147 145 143 136 128 124 124 132 141 146 146 146 148 149 149 149 156 157 156 153 167 207 236 223 145 136 136 145 147 133 122 116 106 84 72 76 70 57 41 32 17 16 29 47 63 80 94 100 101 100 99 97 97 96 95 95 92 91 90 89 86 81 74 63 51 32 3 322 293 274 261 253 248 243 238
124 129 133 135 136 136 138 140 143 145 145 145 144 142 138 134 136 142 153 154 153 152 153 154 153 153 157 161 156 149 153 167 186 209 231 159 138 135 144 146 140 130 120 109 90 74 68 62 51 39 35 27 18 22 35 52 68 81 89 91 91 89 88 88 87 87 86 84 82 81 80 78 74 67 58 46 33 19 3 351 330 303 277 262 253 246
117 121 125 128 130 132 134 137 140 143 144 143 142 141 139 139 143 149 154 152 152 154 157 157 156 153 151 146 138 137 159 178 184 192 212 157 132 128 136 144 146 140 129 122 111 92 73 63 49 36 36 41 36 28 29 43 59 73 80 82 82 81 80 81 81 82 81 78 76 74 70 69 66 59 47 31 13 358 351 344 334 321 301 286 281 278
114 116 119 123 126 128 131 134 138 141 141 139 138 135 131 131 135 140 142 147 152 155 156 154 152 148 142 134 133 144 177 180 180 182 194 154 135 131 140 150 157 158 151 141 135 126 110 94 77 62 53 60 61 57 48 46 56 69 79 79 77 75 74 76 78 79 78 76 73 69 65 61 57 49 35 15 356 343 335 327 317 303 289 289 293 296
121 119 120 122 123 125 127 131 134 135 134 129 125 118 108 108 116 126 136 147 152 154 152 150 150 150 151 149 153 163 173 167 166 173 192 153 138 140 152 156 162 171 189 169 159 154 144 135 122 110 96 89 86 83 80 74 75 82 93 88 82 76 73 75 79 81 80 77 73 68 63 57 51 41 28 9 352 340 331 321 301 279 258 253 248 245
120 118 119 120 119 118 119 120 120 119 117 112 106 99 94 96 104 115 129 141 147 148 146 147 150 156 163 164 163 159 150 144 153 163 172 137 126 136 154 155 156 163 213 248 211 173 147 145 140 134 129 117 106 98 94 88 87 95 109 108 102 91 80 84 89 91 91 85 79 73 66 57 47 36 21 4 347 334 325 319 301 282 266 256 249 243
113 111 112 112 111 110 109 108 105 102 98 95 93 91 89 89 90 92 98 104 117 131 141 146 151 156 160 153 137 119 111 124 143 155 154 128 121 133 152 151 151 152 160 247 297 75 115 127 132 134 136 130 121 112 104 93 85 88 105 112 112 106 94 96 101 106 111 104 100 94 82 65 48 29 7 347 335 325 320 315 304 293 280 271 263 257
114 115 115 114 111 108 105 101 98 95 92 90 89 89 88 86 85 83 79 72 70 82 115 138 148 151 150 136 117 103 102 122 140 149 147 129 127 138 152 154 155 154 153 149 107 80 82 109 125 133 135 135 132 124 116 101 86 74 76 92 100 102 95 87 93 107 127 141 146 145 139 138 177 241 307 321 322 321 316 310 303 296 289 283 278 273
120 120 120 118 115 111 106 100 96 93 90 87 87 87 88 88 88 86 81 75 68 62 60 72 100 127 139 139 135 131 130 136 144 146 139 132 132 140 150 159 161 158 156 150 137 122 113 125 135 140 139 141 142 139 130 118 105 92 81 83 84 84 76 63 59 65 176 195 191 188 198 222 233 240 258 300 313 313 309 303 297 293 290 289 287 284
125 124 123 121 117 113 108 103 99 95 90 86 84 83 86 88 89 88 87 84 81 76 70 60 54 52 62 102 123 130 133 136 138 137 129 131 137 142 146 155 160 160 156 152 145 136 131 136 143 147 148 149 150 148 142 137 134 129 117 105 96 87 73 52 29 356 298 255 231 221 236 257 262 264 272 293 297 295 293 287 284 283 285 286 286 286
126 125 123 120 116 112 107 103 99 97 94 90 86 84 85 87 88 88 87 87 87 86 82 73 63 53 46 54 74 94 111 115 115 110 96 106 129 139 135 142 149 155 153 149 144 140 136 139 146 153 159 160 155 149 145 150 155 152 136 122 111 101 88 61 24 351 324 303 292 285 282 281 278 276 274 281 278 273 268 263 260 262 272 275 276 276
123 122 119 115 111 108 105 102 100 98 97 96 94 91 90 90 90 89 88 87 88 89 88 82 74 66 61 64 67 72 80 81 78 70 55 45 81 122 121 127 134 139 133 139 142 143 144 146 153 160 166 159 144 134 138 150 157 154 136 126 120 115 106 88 49 8 340 318 305 297 290 287 281 278 273 272 267 261 255 241 234 237 256 261 261 260
121 119 116 113 109 106 105 103 101 99 97 97 98 99 99 96 94 92 90 89 89 89 90 90 86 80 73 73 73 72 72 71 67 59 45 26 34 100 118 123 126 122 104 114 136 148 154 157 161 163 161 150 137 130 132 147 152 147 136 136 139 140 134 117 91 39 344 314 301 293 286 282 279 277 276 274 272 269 266 258 256 267 282 278 266 255
119 116 113 110 106 102 101 101 101 101 101 103 105 106 106 103 99 95 92 91 91 91 92 92 90 86 80 75 72 70 69 68 66 60 49 28 22 57 103 115 120 121 116 111 123 143 158 157 157 154 149 144 140 139 141 148 149 147 148 153 154 149 137 124 109 84 317 301 299 302 301 300 295 293 289 288 284 284 287 289 293 298 302 299 292 281
116 112 108 104 98 95 95 97 100 104 110 113 115 115 115 114 111 107 102 99 97 97 98 96 93 88 82 75 70 66 63 62 61 57 50 33 30 45 80 98 109 117 122 117 110 106 116 125 128 129 128 131 133 134 137 137 134 138 157 156 138 121 117 114 109 106 263 277 305 320 322 317 315 311 307 299 294 293 299 295 295 293 284 277 281 289
113 110 107 103 100 98 99 102 106 111 117 119 121 122 125 124 122 119 116 112 110 110 112 109 105 99 91 82 73 64 56 53 52 52 49 39 39 50 70 83 94 106 115 114 106 96 86 94 103 111 116 123 128 131 130 124 120 116 114 111 114 119 126 128 129 149 256 285 354 350 336 329 322 316 307 296 288 279 273 274 279 280 276 268 265 269
110 107 105 104 104 105 108 110 113 118 123 122 122 123 126 125 123 120 118 117 118 119 119 116 113 109 103 96 86 73 61 53 51 50 49 44 44 48 62 70 77 87 102 107 103 95 83 80 82 86 91 110 123 129 129 125 121 117 103 101 144 170 166 146 140 148 202 38 20 8 354 335 321 305 292 283 273 263 243 241 245 253 265 272 271 265
107 105 104 105 106 108 111 115 121 126 128 125 124 123 123 122 119 117 115 115 117 119 119 117 113 108 104 104 101 95 83 71 60 54 50 48 48 50 56 60 59 58 64 87 102 106 99 88 79 70 58 72 99 118 124 126 128 128 121 124 181 211 135 110 113 122 143 46 31 17 360 332 310 292 274 260 244 226 218 221 219 222 235 252 263 266
107 107 108 111 114 117 121 125 128 129 127 125 123 122 121 119 117 116 115 116 118 120 122 123 118 112 108 112 114 113 108 97 82 69 59 52 51 52 54 54 51 48 46 53 67 89 108 107 100 87 67 61 76 97 116 125 130 132 130 133 127 93 76 85 88 79 12 16 19 12 353 322 299 283 271 258 228 183 175 200 208 205 201 218 238 254
110 113 117 120 123 126 129 132 132 130 126 122 120 119 119 118 116 115 117 118 119 121 125 125 123 120 121 125 126 126 124 118 109 97 82 66 58 54 53 51 49 47 47 46 44 47 61 86 102 107 98 88 84 89 101 117 128 134 136 141 140 134 123 117 102 70 26 16 10 359 339 312 292 280 287 303 325 111 128 135 122 84 71 102 249 257
120 123 126 128 129 130 132 133 133 131 127 123 120 119 119 119 118 117 117 119 121 122 125 122 120 120 124 129 133 135 134 131 126 119 107 94 81 72 67 61 57 54 55 55 52 50 50 59 76 100 118 118 117 114 109 115 126 135 138 145 151 152 146 130 111 87 54 34 14 352 330 313 307 309 329 322 311 188 139 132 116 91 59 25 346 311
128 129 131 132 132 132 134 136 135 132 128 124 122 120 120 122 122 122 122 123 124 124 125 123 121 121 123 128 133 136 135 133 132 128 121 113 104 96 89 85 80 75 72 70 68 64 61 54 48 42 47 96 127 132 130 132 134 135 135 145 153 153 138 125 114 104 89 68 38 351 318 321 332 340 334 320 310 284 132 131 128 118 99 46 340 319
130 132 134 135 135 137 139 139 136 133 130 127 125 123 123 123 124 124 125 127 128 127 127 127 127 126 127 129 131 132 131 130 129 128 125 122 120 117 113 112 110 106 99 93 89 85 80 68 52 35 17 9 44 119 130 134 133 130 129 141 147 143 128 120 114 107 96 96 98 47 298 319 333 331 316 314 317 325 18 124 130 126 118 99 323 306
131 133 135 137 138 139 140 139 136 133 131 130 128 127 127 125 124 124 126 127 128 128 128 130 130 130 130 131 132 133 133 132 131 129 128 129 129 131 131 132 131 128 122 117 116 115 112 99 81 62 40 18 15 56 122 130 132 133 135 139 138 129 119 113 106 96 75 94 120 154 257 285 302 310 310 314 318 323 327 350 108 104 91 68 337 302
133 135 136 137 138 138 138 137 135 133 133 132 131 129 128 127 127 126 127 127 127 126 126 127 127 128 129 131 132 134 136 134 132 131 130 131 135 138 141 144 145 143 138 136 136 138 138 130 117 99 76 43 15 360 99 134 140 144 147 145 144 135 120 111 103 93 63 67 155 181 219 249 303 333 330 323 322 322 326 339 9 32 33 11 344 322